JBU39 TJSJ-KMCO

Flight info

Callsign JBU39
Flight time 2h 51m
Altitude 36000
Route ACONY3 SAPPO Y280 OCTAL MUNGI1
Aircraft A320/M-SDE3FGHIRWY/LB1

Departure

Time 2026-04-26 04:05
Airport Luis Munoz Marin International Airport (TJSJ)

Arrival

Time 2026-04-26 06:56
Airport Orlando International Airport (KMCO)
Time Latitude Longitude Altitude Speed Heading
2026-04-26 03:44 18.43572 -66.00742 17 ft 0 kts 56°
2026-04-26 03:46 18.43572 -66.00743 17 ft 0 kts 56°
2026-04-26 03:54 18.43564 -66.00755 18 ft 4 kts 50°
2026-04-26 03:54 18.43544 -66.00773 20 ft 4 kts 18°
2026-04-26 03:55 18.43521 -66.00776 18 ft 4 kts 356°
2026-04-26 03:55 18.43495 -66.00770 17 ft 4 kts 330°
2026-04-26 03:55 18.43475 -66.00752 19 ft 4 kts 302°
2026-04-26 03:55 18.43466 -66.00728 17 ft 3 kts 272°
2026-04-26 03:56 18.43466 -66.00725 17 ft 0 kts 270°
2026-04-26 03:59 18.43466 -66.00726 17 ft 1 kts 270°
2026-04-26 04:00 18.43466 -66.00754 17 ft 8 kts 270°
2026-04-26 04:00 18.43467 -66.00844 17 ft 17 kts 270°
2026-04-26 04:00 18.43466 -66.00973 17 ft 18 kts 270°
2026-04-26 04:00 18.43466 -66.01114 17 ft 20 kts 270°
2026-04-26 04:01 18.43466 -66.01265 17 ft 21 kts 270°
2026-04-26 04:01 18.43470 -66.01408 17 ft 16 kts 283°
2026-04-26 04:01 18.43566 -66.01437 19 ft 16 kts
2026-04-26 04:01 18.43685 -66.01437 19 ft 18 kts 359°
2026-04-26 04:02 18.43758 -66.01487 17 ft 8 kts 265°
2026-04-26 04:02 18.43759 -66.01523 17 ft 0 kts 295°
2026-04-26 04:02 18.43761 -66.01527 17 ft 0 kts 296°
2026-04-26 04:03 18.43786 -66.01550 17 ft 12 kts 325°
2026-04-26 04:03 18.43859 -66.01532 17 ft 13 kts 66°
2026-04-26 04:03 18.43864 -66.01520 17 ft 0 kts 66°
2026-04-26 04:04 18.43871 -66.01501 17 ft 16 kts 68°
2026-04-26 04:04 18.44009 -66.01158 19 ft 84 kts 67°
2026-04-26 04:04 18.44313 -66.00410 19 ft 136 kts 67°
2026-04-26 04:04 18.44738 -65.99356 65 ft 172 kts 67°
2026-04-26 04:05 18.45203 -65.98231 752 ft 160 kts 60°
2026-04-26 04:05 18.45890 -65.97342 1333 ft 156 kts 33°
2026-04-26 04:05 18.46897 -65.96943 1658 ft 165 kts 358°
2026-04-26 04:05 18.48078 -65.97171 1774 ft 183 kts 335°
2026-04-26 04:06 18.49364 -65.97583 1969 ft 205 kts 359°
2026-04-26 04:06 18.50872 -65.97558 2237 ft 228 kts 352°
2026-04-26 04:06 18.52358 -65.98288 2558 ft 252 kts 318°
2026-04-26 04:06 18.53530 -65.99692 3161 ft 263 kts 307°
2026-04-26 04:07 18.54583 -66.01279 3987 ft 266 kts 304°
2026-04-26 04:07 18.55645 -66.02892 4810 ft 269 kts 305°
2026-04-26 04:07 18.56762 -66.04488 5624 ft 272 kts 307°
2026-04-26 04:07 18.57945 -66.06063 6432 ft 275 kts 308°
2026-04-26 04:08 18.59173 -66.07614 7204 ft 276 kts 309°
2026-04-26 04:08 18.60432 -66.09156 7940 ft 279 kts 309°
2026-04-26 04:08 18.61716 -66.10700 8643 ft 283 kts 310°
2026-04-26 04:08 18.63026 -66.12262 9354 ft 286 kts 310°
2026-04-26 04:09 18.64354 -66.13837 10048 ft 289 kts 310°
2026-04-26 04:09 18.65733 -66.15474 10304 ft 309 kts 310°
2026-04-26 04:09 18.67211 -66.17236 10428 ft 331 kts 310°
2026-04-26 04:09 18.68771 -66.19096 10758 ft 343 kts 310°
2026-04-26 04:10 18.70364 -66.20995 11286 ft 348 kts 310°
2026-04-26 04:10 18.71976 -66.22914 11868 ft 351 kts 310°
2026-04-26 04:10 18.73605 -66.24856 12436 ft 355 kts 310°
2026-04-26 04:10 18.75245 -66.26813 13001 ft 358 kts 309°
2026-04-26 04:11 18.76899 -66.28791 13560 ft 361 kts 309°
2026-04-26 04:11 18.78548 -66.30759 14062 ft 364 kts 309°
2026-04-26 04:11 18.80231 -66.32768 14566 ft 366 kts 309°
2026-04-26 04:11 18.81924 -66.34789 15070 ft 369 kts 309°
2026-04-26 04:12 18.83625 -66.36824 15572 ft 371 kts 308°
2026-04-26 04:12 18.85337 -66.38874 16072 ft 373 kts 308°
2026-04-26 04:12 18.87060 -66.40938 16568 ft 376 kts 308°
2026-04-26 04:12 18.88792 -66.43013 17063 ft 378 kts 308°
2026-04-26 04:13 18.89970 -66.44423 17419 ft 380 kts 308°
2026-04-26 04:13 18.92292 -66.47206 18103 ft 383 kts 308°
2026-04-26 04:13 18.93510 -66.48617 18424 ft 386 kts 310°
2026-04-26 04:13 18.95396 -66.50643 18860 ft 389 kts 312°
2026-04-26 04:14 18.97361 -66.52628 19306 ft 392 kts 313°
2026-04-26 04:14 18.99369 -66.54597 19756 ft 395 kts 314°
2026-04-26 04:14 19.00679 -66.55877 20047 ft 397 kts 314°
2026-04-26 04:14 19.02705 -66.57869 20507 ft 399 kts 313°
2026-04-26 04:15 19.04735 -66.59889 20954 ft 402 kts 313°
2026-04-26 04:15 19.06765 -66.61936 21394 ft 405 kts 313°
2026-04-26 04:15 19.08679 -66.64114 21810 ft 404 kts 306°
2026-04-26 04:15 19.10462 -66.66426 22225 ft 407 kts 306°
2026-04-26 04:16 19.12260 -66.68747 22636 ft 410 kts 306°
2026-04-26 04:16 19.13898 -66.71206 23040 ft 409 kts 299°
2026-04-26 04:16 19.15419 -66.73755 23438 ft 411 kts 299°
2026-04-26 04:16 19.16938 -66.76333 23781 ft 413 kts 298°
2026-04-26 04:17 19.18453 -66.78925 24123 ft 414 kts 298°
2026-04-26 04:17 19.19965 -66.81523 24473 ft 415 kts 298°
2026-04-26 04:17 19.21465 -66.84096 24819 ft 416 kts 298°
2026-04-26 04:17 19.22994 -66.86711 25161 ft 417 kts 298°
2026-04-26 04:18 19.24524 -66.89327 25497 ft 418 kts 298°
2026-04-26 04:18 19.26055 -66.91943 25835 ft 418 kts 298°
2026-04-26 04:18 19.27587 -66.94566 26174 ft 419 kts 298°
2026-04-26 04:18 19.29123 -66.97198 26455 ft 421 kts 298°
2026-04-26 04:19 19.30668 -66.99839 26763 ft 422 kts 298°
2026-04-26 04:19 19.32217 -67.02486 27077 ft 423 kts 298°
2026-04-26 04:19 19.33770 -67.05141 27383 ft 424 kts 298°
2026-04-26 04:19 19.35328 -67.07805 27693 ft 425 kts 298°
2026-04-26 04:20 19.36866 -67.10441 27996 ft 426 kts 298°
2026-04-26 04:20 19.38431 -67.13120 28300 ft 428 kts 298°
2026-04-26 04:20 19.39998 -67.15801 28609 ft 428 kts 298°
2026-04-26 04:20 19.41561 -67.18477 29046 ft 426 kts 298°
2026-04-26 04:21 19.43110 -67.21141 29504 ft 424 kts 298°
2026-04-26 04:21 19.44652 -67.23797 29958 ft 422 kts 297°
2026-04-26 04:21 19.46189 -67.26442 30334 ft 420 kts 297°
2026-04-26 04:21 19.47717 -67.29073 30709 ft 419 kts 297°
2026-04-26 04:22 19.49242 -67.31695 31086 ft 417 kts 297°
2026-04-26 04:22 19.50761 -67.34308 31468 ft 415 kts 297°
2026-04-26 04:22 19.52272 -67.36907 31855 ft 413 kts 296°
2026-04-26 04:22 19.53773 -67.39490 32249 ft 411 kts 296°
2026-04-26 04:23 19.55274 -67.42072 32639 ft 409 kts 296°
2026-04-26 04:23 19.56763 -67.44635 33039 ft 407 kts 295°
2026-04-26 04:23 19.58221 -67.47152 33432 ft 405 kts 295°
2026-04-26 04:23 19.59711 -67.49729 33830 ft 403 kts 295°
2026-04-26 04:24 19.61175 -67.52259 34181 ft 402 kts 295°
2026-04-26 04:24 19.62618 -67.54748 34472 ft 401 kts 295°
2026-04-26 04:24 19.64077 -67.57263 34746 ft 400 kts 295°
2026-04-26 04:24 19.65532 -67.59774 35007 ft 399 kts 295°
2026-04-26 04:25 19.66988 -67.62286 35262 ft 399 kts 294°
2026-04-26 04:25 19.68442 -67.64795 35534 ft 398 kts 294°
2026-04-26 04:25 19.69889 -67.67298 35789 ft 398 kts 294°
2026-04-26 04:25 19.71340 -67.69807 35942 ft 398 kts 294°
2026-04-26 04:26 19.72796 -67.72327 35988 ft 402 kts 294°
2026-04-26 04:26 19.75738 -67.77439 35983 ft 411 kts 294°
2026-04-26 04:27 19.78751 -67.82662 35983 ft 413 kts 294°
2026-04-26 04:27 19.81737 -67.87831 35985 ft 413 kts 294°
2026-04-26 04:28 19.84742 -67.93046 35981 ft 413 kts 294°
2026-04-26 04:28 19.87735 -67.98251 35981 ft 413 kts 294°
2026-04-26 04:29 19.90723 -68.03467 35985 ft 413 kts 294°
2026-04-26 04:29 19.93718 -68.08679 35990 ft 413 kts 294°
2026-04-26 04:30 19.96700 -68.13866 35996 ft 413 kts 294°
2026-04-26 04:30 19.99695 -68.19091 36004 ft 413 kts 294°
2026-04-26 04:31 20.02685 -68.24325 36008 ft 413 kts 294°
2026-04-26 04:31 20.05672 -68.29541 36007 ft 413 kts 294°
2026-04-26 04:32 20.08657 -68.34755 36002 ft 413 kts 294°
2026-04-26 04:32 20.11639 -68.39972 35995 ft 412 kts 294°
2026-04-26 04:33 20.14613 -68.45196 35995 ft 412 kts 294°
2026-04-26 04:33 20.17591 -68.50407 35999 ft 412 kts 294°
2026-04-26 04:34 20.20555 -68.55593 36009 ft 412 kts 294°
2026-04-26 04:34 20.23515 -68.60809 36003 ft 411 kts 294°
2026-04-26 04:35 20.26473 -68.66024 36003 ft 410 kts 294°
2026-04-26 04:35 20.29427 -68.71222 36000 ft 410 kts 294°
2026-04-26 04:36 20.32377 -68.76421 36002 ft 410 kts 294°
2026-04-26 04:36 20.35331 -68.81613 35998 ft 410 kts 294°
2026-04-26 04:37 20.38261 -68.86773 36001 ft 409 kts 294°
2026-04-26 04:37 20.41198 -68.91967 35999 ft 409 kts 294°
2026-04-26 04:38 20.44134 -68.97161 36000 ft 408 kts 294°
2026-04-26 04:38 20.47061 -69.02356 36005 ft 408 kts 294°
2026-04-26 04:39 20.49993 -69.07538 36002 ft 407 kts 294°
2026-04-26 04:39 20.52917 -69.12711 36000 ft 407 kts 294°
2026-04-26 04:40 20.55815 -69.17853 35995 ft 406 kts 294°
2026-04-26 04:40 20.58726 -69.23033 36003 ft 406 kts 294°
2026-04-26 04:41 20.61632 -69.28187 36000 ft 405 kts 294°
2026-04-26 04:41 20.64531 -69.33352 35998 ft 405 kts 293°
2026-04-26 04:42 20.67425 -69.38510 35996 ft 404 kts 294°
2026-04-26 04:42 20.70289 -69.43628 35994 ft 404 kts 293°
2026-04-26 04:43 20.73187 -69.48790 35992 ft 404 kts 294°
2026-04-26 04:43 20.76079 -69.53944 35997 ft 404 kts 294°
2026-04-26 04:44 20.78962 -69.59099 35994 ft 404 kts 293°
2026-04-26 04:44 20.81839 -69.64257 35990 ft 404 kts 293°
2026-04-26 04:45 20.84719 -69.69412 35990 ft 404 kts 293°
2026-04-26 04:45 20.87579 -69.74541 35988 ft 404 kts 293°
2026-04-26 04:46 20.90459 -69.79702 36008 ft 403 kts 293°
2026-04-26 04:46 20.93332 -69.84855 36001 ft 403 kts 293°
2026-04-26 04:47 20.96201 -69.90007 36005 ft 402 kts 293°
2026-04-26 04:47 20.99050 -69.95144 35995 ft 401 kts 293°
2026-04-26 04:48 21.03301 -70.02800 35996 ft 400 kts 293°
2026-04-26 04:48 21.06144 -70.07931 35992 ft 400 kts 293°
2026-04-26 04:49 21.08983 -70.13064 35988 ft 400 kts 293°
2026-04-26 04:49 21.11818 -70.18185 35983 ft 400 kts 293°
2026-04-26 04:50 21.14657 -70.23305 35989 ft 399 kts 293°
2026-04-26 04:50 21.17467 -70.28395 35997 ft 398 kts 293°
2026-04-26 04:51 21.20287 -70.33509 35990 ft 398 kts 293°
2026-04-26 04:51 21.23089 -70.38586 35987 ft 397 kts 293°
2026-04-26 04:52 21.25901 -70.43686 35992 ft 397 kts 292°
2026-04-26 04:52 21.28712 -70.48796 36017 ft 397 kts 292°
2026-04-26 04:53 21.31516 -70.53878 35991 ft 395 kts 292°
2026-04-26 04:53 21.34301 -70.58952 35997 ft 394 kts 292°
2026-04-26 04:54 21.37064 -70.63994 35993 ft 393 kts 292°
2026-04-26 04:54 21.39830 -70.69045 35989 ft 392 kts 292°
2026-04-26 04:55 21.42593 -70.74096 35987 ft 392 kts 292°
2026-04-26 04:55 21.45346 -70.79115 35982 ft 392 kts 292°
2026-04-26 04:56 21.48102 -70.84154 35978 ft 392 kts 292°
2026-04-26 04:56 21.50859 -70.89198 35990 ft 391 kts 292°
2026-04-26 04:57 21.53611 -70.94238 35990 ft 391 kts 292°
2026-04-26 04:57 21.55919 -70.98457 35990 ft 391 kts 292°
2026-04-26 04:58 21.58648 -71.03464 35981 ft 390 kts 292°
2026-04-26 04:58 21.61385 -71.08502 35977 ft 390 kts 292°
2026-04-26 04:59 21.64117 -71.13523 35976 ft 390 kts 292°
2026-04-26 04:59 21.66855 -71.18561 35976 ft 390 kts 292°
2026-04-26 05:00 21.69589 -71.23595 36002 ft 390 kts 292°
2026-04-26 05:00 21.72329 -71.28630 35995 ft 389 kts 292°
2026-04-26 05:01 21.75034 -71.33626 35990 ft 388 kts 292°
2026-04-26 05:01 21.77751 -71.38644 35985 ft 388 kts 292°
2026-04-26 05:02 21.80469 -71.43663 35982 ft 388 kts 292°
2026-04-26 05:02 21.83176 -71.48688 35980 ft 387 kts 292°
2026-04-26 05:03 21.85882 -71.53708 35978 ft 387 kts 292°
2026-04-26 05:03 21.88574 -71.58688 35995 ft 388 kts 292°
2026-04-26 05:04 21.91286 -71.63712 35988 ft 388 kts 292°
2026-04-26 05:04 21.93996 -71.68747 35981 ft 388 kts 292°
2026-04-26 05:05 21.96710 -71.73783 35977 ft 389 kts 292°
2026-04-26 05:05 21.99424 -71.78833 35975 ft 389 kts 292°
2026-04-26 05:06 22.02125 -71.83880 35972 ft 389 kts 292°
2026-04-26 05:06 22.04815 -71.88894 35972 ft 389 kts 292°
2026-04-26 05:07 22.07523 -71.93938 35980 ft 389 kts 292°
2026-04-26 05:07 22.10231 -71.98983 35997 ft 388 kts 292°
2026-04-26 05:08 22.12927 -72.04025 35992 ft 388 kts 292°
2026-04-26 05:08 22.15616 -72.09066 35986 ft 387 kts 292°
2026-04-26 05:09 22.18302 -72.14112 35982 ft 387 kts 291°
2026-04-26 05:09 22.20991 -72.19159 35980 ft 387 kts 292°
2026-04-26 05:10 22.23677 -72.24198 35982 ft 387 kts 292°
2026-04-26 05:10 22.26367 -72.29239 35985 ft 387 kts 292°
2026-04-26 05:11 22.29032 -72.34251 35983 ft 387 kts 292°
2026-04-26 05:11 22.31707 -72.39299 35985 ft 387 kts 291°
2026-04-26 05:12 22.34383 -72.44350 35979 ft 387 kts 292°
2026-04-26 05:12 22.37068 -72.49404 35978 ft 387 kts 292°
2026-04-26 05:13 22.39748 -72.54463 35968 ft 387 kts 292°
2026-04-26 05:13 22.42425 -72.59519 35974 ft 387 kts 291°
2026-04-26 05:14 22.45086 -72.64540 35982 ft 387 kts 292°
2026-04-26 05:14 22.47764 -72.69603 36019 ft 387 kts 291°
2026-04-26 05:15 22.50424 -72.74648 35985 ft 385 kts 291°
2026-04-26 05:15 22.53080 -72.79699 35979 ft 385 kts 291°
2026-04-26 05:16 22.55734 -72.84741 35977 ft 386 kts 291°
2026-04-26 05:16 22.58371 -72.89755 35976 ft 386 kts 291°
2026-04-26 05:17 22.61032 -72.94810 35972 ft 386 kts 291°
2026-04-26 05:17 22.63688 -72.99864 35977 ft 386 kts 291°
2026-04-26 05:18 22.66340 -73.04913 35974 ft 386 kts 291°
2026-04-26 05:18 22.68989 -73.09968 35977 ft 386 kts 291°
2026-04-26 05:19 22.71619 -73.14990 35977 ft 386 kts 291°
2026-04-26 05:19 22.74260 -73.20047 35975 ft 386 kts 291°
2026-04-26 05:20 22.76904 -73.25104 35975 ft 386 kts 291°
2026-04-26 05:20 22.79547 -73.30164 35979 ft 386 kts 291°
2026-04-26 05:21 22.82178 -73.35222 35978 ft 385 kts 291°
2026-04-26 05:21 22.84818 -73.40281 35976 ft 385 kts 291°
2026-04-26 05:22 22.87441 -73.45316 36006 ft 386 kts 292°
2026-04-26 05:22 22.90072 -73.50372 35965 ft 385 kts 292°
2026-04-26 05:23 22.92697 -73.55442 35960 ft 385 kts 292°
2026-04-26 05:23 22.95323 -73.60519 35961 ft 386 kts 292°
2026-04-26 05:24 22.97957 -73.65594 35971 ft 386 kts 292°
2026-04-26 05:24 23.00597 -73.70679 35966 ft 387 kts 292°
2026-04-26 05:25 23.03229 -73.75786 35962 ft 387 kts 292°
2026-04-26 05:25 23.05848 -73.80863 35962 ft 388 kts 292°
2026-04-26 05:26 23.08500 -73.85971 35967 ft 388 kts 292°
2026-04-26 05:26 23.11147 -73.91089 35968 ft 388 kts 292°
2026-04-26 05:27 23.13783 -73.96208 35965 ft 388 kts 292°
2026-04-26 05:27 23.16416 -74.01336 35971 ft 388 kts 292°
2026-04-26 05:28 23.19060 -74.06471 35969 ft 389 kts 292°
2026-04-26 05:28 23.21679 -74.11576 35967 ft 389 kts 292°
2026-04-26 05:29 23.24327 -74.16718 35966 ft 390 kts 292°
2026-04-26 05:29 23.26969 -74.21866 35986 ft 390 kts 293°
2026-04-26 05:30 23.29606 -74.27042 35962 ft 392 kts 293°
2026-04-26 05:30 23.32259 -74.32236 35955 ft 393 kts 293°
2026-04-26 05:31 23.34923 -74.37442 35959 ft 394 kts 294°
2026-04-26 05:31 23.37592 -74.42678 35954 ft 395 kts 294°
2026-04-26 05:32 23.40267 -74.47923 35952 ft 396 kts 294°
2026-04-26 05:32 23.42935 -74.53152 35954 ft 397 kts 294°
2026-04-26 05:33 23.45618 -74.58419 35954 ft 397 kts 293°
2026-04-26 05:33 23.48293 -74.63690 35959 ft 397 kts 294°
2026-04-26 05:34 23.50960 -74.68935 35964 ft 398 kts 293°
2026-04-26 05:34 23.53635 -74.74209 35966 ft 398 kts 293°
2026-04-26 05:35 23.56310 -74.79497 35969 ft 398 kts 293°
2026-04-26 05:35 23.58982 -74.84774 35970 ft 398 kts 293°
2026-04-26 05:36 23.61655 -74.90057 35970 ft 398 kts 293°
2026-04-26 05:36 23.64310 -74.95317 35971 ft 398 kts 293°
2026-04-26 05:37 23.66988 -75.00609 35976 ft 399 kts 294°
2026-04-26 05:37 23.69670 -75.05921 35967 ft 400 kts 294°
2026-04-26 05:38 23.72357 -75.11265 35957 ft 401 kts 294°
2026-04-26 05:38 23.75043 -75.16613 35953 ft 402 kts 294°
2026-04-26 05:39 23.77734 -75.21979 35959 ft 403 kts 294°
2026-04-26 05:39 23.80418 -75.27321 35953 ft 404 kts 294°
2026-04-26 05:40 23.83114 -75.32708 35958 ft 404 kts 294°
2026-04-26 05:40 23.85808 -75.38095 35961 ft 404 kts 294°
2026-04-26 05:41 23.88509 -75.43483 35960 ft 404 kts 295°
2026-04-26 05:41 23.91207 -75.48883 35951 ft 405 kts 295°
2026-04-26 05:42 23.93912 -75.54304 35955 ft 406 kts 295°
2026-04-26 05:42 23.96596 -75.59696 35955 ft 406 kts 295°
2026-04-26 05:43 23.99300 -75.65128 35962 ft 407 kts 295°
2026-04-26 05:43 24.02005 -75.70567 35957 ft 407 kts 295°
2026-04-26 05:44 24.04707 -75.76015 35965 ft 407 kts 295°
2026-04-26 05:44 24.07412 -75.81464 35961 ft 408 kts 295°
2026-04-26 05:45 24.10112 -75.86890 35958 ft 408 kts 295°
2026-04-26 05:45 24.12818 -75.92362 35966 ft 409 kts 295°
2026-04-26 05:46 24.15528 -75.97846 35965 ft 409 kts 295°
2026-04-26 05:46 24.17774 -76.02399 35966 ft 409 kts 295°
2026-04-26 05:47 24.20478 -76.07888 35969 ft 409 kts 295°
2026-04-26 05:47 24.23192 -76.13376 35969 ft 410 kts 295°
2026-04-26 05:48 24.25904 -76.18870 35960 ft 410 kts 295°
2026-04-26 05:48 24.28610 -76.24383 35957 ft 411 kts 295°
2026-04-26 05:49 24.32651 -76.32643 35959 ft 411 kts 295°
2026-04-26 05:50 24.35365 -76.38165 35961 ft 412 kts 295°
2026-04-26 05:50 24.38079 -76.43703 35970 ft 412 kts 295°
2026-04-26 05:51 24.40786 -76.49243 35981 ft 412 kts 296°
2026-04-26 05:51 24.43486 -76.54775 35954 ft 414 kts 296°
2026-04-26 05:52 24.46603 -76.60098 35949 ft 419 kts 308°
2026-04-26 05:52 24.50497 -76.64868 35948 ft 420 kts 309°
2026-04-26 05:53 24.54421 -76.69650 35948 ft 421 kts 309°
2026-04-26 05:53 24.58345 -76.74434 35954 ft 422 kts 309°
2026-04-26 05:54 24.62269 -76.79232 35960 ft 422 kts 309°
2026-04-26 05:54 24.66189 -76.84042 35963 ft 422 kts 309°
2026-04-26 05:55 24.70110 -76.88845 35963 ft 422 kts 309°
2026-04-26 05:55 24.74036 -76.93658 35965 ft 422 kts 309°
2026-04-26 05:56 24.77954 -76.98479 35970 ft 423 kts 309°
2026-04-26 05:56 24.81850 -77.03269 35968 ft 423 kts 309°
2026-04-26 05:57 24.85776 -77.08100 35973 ft 423 kts 309°
2026-04-26 05:57 24.89703 -77.12943 35977 ft 423 kts 309°
2026-04-26 05:58 24.93623 -77.17782 35980 ft 423 kts 309°
2026-04-26 05:58 24.97546 -77.22632 35987 ft 423 kts 309°
2026-04-26 05:59 25.01467 -77.27475 35990 ft 423 kts 310°
2026-04-26 05:59 25.05394 -77.32323 35997 ft 424 kts 310°
2026-04-26 06:00 25.09313 -77.37176 36002 ft 424 kts 310°
2026-04-26 06:00 25.13207 -77.42007 36010 ft 424 kts 310°
2026-04-26 06:01 25.17080 -77.46815 36006 ft 424 kts 310°
2026-04-26 06:01 25.21009 -77.51698 35997 ft 425 kts 310°
2026-04-26 06:02 25.24940 -77.56588 35991 ft 425 kts 310°
2026-04-26 06:02 25.28837 -77.61445 35974 ft 425 kts 310°
2026-04-26 06:03 25.32760 -77.66333 35974 ft 425 kts 310°
2026-04-26 06:03 25.36687 -77.71232 35972 ft 425 kts 310°
2026-04-26 06:04 25.40608 -77.76129 35976 ft 425 kts 310°
2026-04-26 06:04 25.44523 -77.81032 35993 ft 425 kts 310°
2026-04-26 06:05 25.48439 -77.85941 35988 ft 425 kts 310°
2026-04-26 06:05 25.52361 -77.90848 35982 ft 425 kts 310°
2026-04-26 06:06 25.56280 -77.95762 35970 ft 426 kts 310°
2026-04-26 06:06 25.60193 -78.00681 35971 ft 426 kts 310°
2026-04-26 06:07 25.64113 -78.05614 35975 ft 426 kts 310°
2026-04-26 06:07 25.68011 -78.10510 35975 ft 426 kts 310°
2026-04-26 06:08 25.71932 -78.15450 35972 ft 426 kts 310°
2026-04-26 06:08 25.75847 -78.20391 35973 ft 426 kts 310°
2026-04-26 06:09 25.79756 -78.25337 35984 ft 426 kts 310°
2026-04-26 06:09 25.83671 -78.30288 35982 ft 426 kts 310°
2026-04-26 06:10 25.87582 -78.35229 35980 ft 426 kts 310°
2026-04-26 06:10 25.91496 -78.40175 35981 ft 426 kts 310°
2026-04-26 06:11 25.95379 -78.45109 35980 ft 426 kts 310°
2026-04-26 06:11 25.99280 -78.50067 35979 ft 426 kts 310°
2026-04-26 06:12 26.03182 -78.55023 35978 ft 426 kts 310°
2026-04-26 06:12 26.07088 -78.59985 35981 ft 426 kts 310°
2026-04-26 06:13 26.10966 -78.64924 35979 ft 426 kts 310°
2026-04-26 06:13 26.14860 -78.69891 35975 ft 426 kts 309°
2026-04-26 06:14 26.18761 -78.74874 35975 ft 426 kts 309°
2026-04-26 06:14 26.22665 -78.79851 35973 ft 427 kts 309°
2026-04-26 06:15 26.26565 -78.84849 35970 ft 427 kts 309°
2026-04-26 06:15 26.30444 -78.89819 35972 ft 427 kts 309°
2026-04-26 06:16 26.34340 -78.94819 35976 ft 427 kts 309°
2026-04-26 06:16 26.38237 -78.99827 35976 ft 427 kts 309°
2026-04-26 06:17 26.42138 -79.04844 35972 ft 427 kts 309°
2026-04-26 06:17 26.46036 -79.09856 35976 ft 428 kts 309°
2026-04-26 06:18 26.49936 -79.14877 35977 ft 428 kts 309°
2026-04-26 06:18 26.53842 -79.19922 35970 ft 429 kts 309°
2026-04-26 06:19 26.57752 -79.24966 35969 ft 429 kts 309°
2026-04-26 06:19 26.61638 -79.29981 35970 ft 429 kts 309°
2026-04-26 06:20 26.65548 -79.35042 35974 ft 430 kts 309°
2026-04-26 06:20 26.69452 -79.40102 35975 ft 430 kts 309°
2026-04-26 06:21 26.73361 -79.45167 35973 ft 430 kts 309°
2026-04-26 06:21 26.77254 -79.50204 35974 ft 430 kts 309°
2026-04-26 06:22 26.81158 -79.55279 35984 ft 430 kts 308°
2026-04-26 06:22 26.85062 -79.60363 35975 ft 431 kts 308°
2026-04-26 06:23 26.88974 -79.65466 35874 ft 432 kts 308°
2026-04-26 06:23 26.90909 -79.67989 35626 ft 431 kts 308°
2026-04-26 06:23 26.92866 -79.70540 35382 ft 430 kts 308°
2026-04-26 06:23 26.94817 -79.73084 35133 ft 431 kts 308°
2026-04-26 06:24 26.96772 -79.75634 34888 ft 431 kts 308°
2026-04-26 06:24 26.98724 -79.78185 34666 ft 431 kts 308°
2026-04-26 06:24 27.00674 -79.80740 34427 ft 432 kts 308°
2026-04-26 06:24 27.02634 -79.83309 34190 ft 432 kts 308°
2026-04-26 06:25 27.04589 -79.85875 33959 ft 433 kts 308°
2026-04-26 06:25 27.06542 -79.88444 33692 ft 433 kts 308°
2026-04-26 06:25 27.08501 -79.91017 33425 ft 434 kts 308°
2026-04-26 06:25 27.10442 -79.93559 33162 ft 434 kts 308°
2026-04-26 06:26 27.12413 -79.96130 32928 ft 432 kts 308°
2026-04-26 06:26 27.14374 -79.98689 32675 ft 431 kts 308°
2026-04-26 06:26 27.16323 -80.01245 32416 ft 429 kts 307°
2026-04-26 06:26 27.18253 -80.03792 32166 ft 428 kts 307°
2026-04-26 06:27 27.20177 -80.06333 31914 ft 426 kts 307°
2026-04-26 06:27 27.22097 -80.08869 31666 ft 425 kts 307°
2026-04-26 06:27 27.24012 -80.11393 31420 ft 424 kts 308°
2026-04-26 06:27 27.25922 -80.13909 31178 ft 423 kts 308°
2026-04-26 06:28 27.27829 -80.16421 30940 ft 421 kts 308°
2026-04-26 06:28 27.29734 -80.18929 30700 ft 421 kts 307°
2026-04-26 06:28 27.31632 -80.21431 30461 ft 419 kts 307°
2026-04-26 06:28 27.33520 -80.23924 30227 ft 418 kts 307°
2026-04-26 06:29 27.35402 -80.26413 29986 ft 417 kts 307°
2026-04-26 06:29 27.37279 -80.28894 29716 ft 416 kts 307°
2026-04-26 06:29 27.39146 -80.31369 29446 ft 414 kts 307°
2026-04-26 06:29 27.40984 -80.33810 29180 ft 412 kts 307°
2026-04-26 06:30 27.42833 -80.36263 28913 ft 411 kts 307°
2026-04-26 06:30 27.44681 -80.38711 28652 ft 409 kts 307°
2026-04-26 06:30 27.46520 -80.41141 28387 ft 407 kts 307°
2026-04-26 06:30 27.48354 -80.43567 28127 ft 405 kts 307°
2026-04-26 06:31 27.50176 -80.45984 27865 ft 404 kts 307°
2026-04-26 06:31 27.51986 -80.48392 27616 ft 402 kts 307°
2026-04-26 06:31 27.53792 -80.50792 27367 ft 401 kts 307°
2026-04-26 06:31 27.55597 -80.53188 27119 ft 399 kts 308°
2026-04-26 06:32 27.57378 -80.55554 26791 ft 393 kts 307°
2026-04-26 06:32 27.59139 -80.57902 26323 ft 390 kts 307°
2026-04-26 06:32 27.60885 -80.60231 25883 ft 388 kts 308°
2026-04-26 06:32 27.62598 -80.62518 25440 ft 386 kts 308°
2026-04-26 06:33 27.64323 -80.64823 24998 ft 384 kts 308°
2026-04-26 06:33 27.66040 -80.67114 24572 ft 382 kts 308°
2026-04-26 06:33 27.67752 -80.69399 24143 ft 381 kts 308°
2026-04-26 06:33 27.69459 -80.71676 23718 ft 378 kts 308°
2026-04-26 06:34 27.71139 -80.73918 23265 ft 370 kts 308°
2026-04-26 06:34 27.72795 -80.76133 22819 ft 367 kts 308°
2026-04-26 06:34 27.74439 -80.78327 22409 ft 364 kts 308°
2026-04-26 06:34 27.75520 -80.79770 22129 ft 362 kts 308°
2026-04-26 06:35 27.77137 -80.81932 21691 ft 359 kts 308°
2026-04-26 06:35 27.79275 -80.84802 21117 ft 355 kts 308°
2026-04-26 06:35 27.80840 -80.86906 20680 ft 353 kts 309°
2026-04-26 06:35 27.82414 -80.89019 20247 ft 351 kts 309°
2026-04-26 06:36 27.83473 -80.90443 19944 ft 350 kts 309°
2026-04-26 06:36 27.85033 -80.92543 19495 ft 348 kts 309°
2026-04-26 06:36 27.86589 -80.94628 19051 ft 346 kts 309°
2026-04-26 06:36 27.88138 -80.96704 18602 ft 345 kts 310°
2026-04-26 06:37 27.89682 -80.98780 18142 ft 344 kts 310°
2026-04-26 06:37 27.91197 -81.00815 17688 ft 342 kts 310°
2026-04-26 06:37 27.92846 -81.02748 17264 ft 341 kts 319°
2026-04-26 06:37 27.94797 -81.04281 16982 ft 341 kts 330°
2026-04-26 06:38 27.96961 -81.05358 16552 ft 339 kts 338°
2026-04-26 06:38 27.99165 -81.06294 16085 ft 338 kts 338°
2026-04-26 06:38 28.01362 -81.07225 15619 ft 336 kts 338°
2026-04-26 06:38 28.03551 -81.08151 15158 ft 335 kts 338°
2026-04-26 06:39 28.05736 -81.09071 14696 ft 335 kts 338°
2026-04-26 06:39 28.07915 -81.09990 14232 ft 334 kts 338°
2026-04-26 06:39 28.10087 -81.10916 13778 ft 333 kts 338°
2026-04-26 06:39 28.12223 -81.11851 13292 ft 332 kts 337°
2026-04-26 06:40 28.14357 -81.12801 12844 ft 327 kts 337°
2026-04-26 06:40 28.16470 -81.13742 12401 ft 325 kts 337°
2026-04-26 06:40 28.18578 -81.14678 11966 ft 323 kts 337°
2026-04-26 06:40 28.20670 -81.15604 11533 ft 322 kts 337°
2026-04-26 06:41 28.22748 -81.16521 11240 ft 316 kts 337°
2026-04-26 06:41 28.24762 -81.17409 11117 ft 305 kts 337°
2026-04-26 06:41 28.26725 -81.18225 10930 ft 298 kts 343°
2026-04-26 06:41 28.28767 -81.18566 10595 ft 300 kts 356°
2026-04-26 06:42 28.30838 -81.18616 10197 ft 298 kts 357°
2026-04-26 06:42 28.32901 -81.18647 9591 ft 295 kts 357°
2026-04-26 06:42 28.34934 -81.18674 9183 ft 284 kts 357°
2026-04-26 06:42 28.36843 -81.18699 9025 ft 266 kts 357°
2026-04-26 06:43 28.38663 -81.18725 8688 ft 257 kts 356°
2026-04-26 06:43 28.40441 -81.18751 8530 ft 257 kts 356°
2026-04-26 06:43 28.42229 -81.18772 8224 ft 257 kts 357°
2026-04-26 06:43 28.44021 -81.18788 7894 ft 257 kts 357°
2026-04-26 06:44 28.45814 -81.18801 7568 ft 258 kts 357°
2026-04-26 06:44 28.47590 -81.18811 7286 ft 251 kts 357°
2026-04-26 06:44 28.49336 -81.18823 6646 ft 257 kts 357°
2026-04-26 06:44 28.51114 -81.18842 6236 ft 252 kts 356°
2026-04-26 06:45 28.52828 -81.18863 5985 ft 241 kts 356°
2026-04-26 06:45 28.54473 -81.18889 5852 ft 232 kts 356°
2026-04-26 06:45 28.56063 -81.18918 5661 ft 227 kts 356°
2026-04-26 06:45 28.57637 -81.18950 5414 ft 224 kts 356°
2026-04-26 06:46 28.59171 -81.18981 5274 ft 217 kts 356°
2026-04-26 06:46 28.60667 -81.19011 5056 ft 214 kts 356°
2026-04-26 06:46 28.62193 -81.19047 4475 ft 228 kts 356°
2026-04-26 06:46 28.63783 -81.19084 4133 ft 228 kts 357°
2026-04-26 06:47 28.65370 -81.19119 3840 ft 227 kts 357°
2026-04-26 06:47 28.66946 -81.19154 3561 ft 226 kts 357°
2026-04-26 06:47 28.68513 -81.19197 3265 ft 225 kts 357°
2026-04-26 06:47 28.70056 -81.19346 3028 ft 219 kts 341°
2026-04-26 06:48 28.71289 -81.20244 3007 ft 205 kts 305°
2026-04-26 06:48 28.71774 -81.21711 2989 ft 198 kts 269°
2026-04-26 06:48 28.71447 -81.23196 2984 ft 195 kts 235°
2026-04-26 06:48 28.70444 -81.24220 2986 ft 195 kts 216°
2026-04-26 06:49 28.69337 -81.25093 2992 ft 187 kts 215°
2026-04-26 06:49 28.68314 -81.25892 2983 ft 170 kts 215°
2026-04-26 06:49 28.67396 -81.26633 2976 ft 154 kts 216°
2026-04-26 06:49 28.66540 -81.27335 2981 ft 150 kts 216°
2026-04-26 06:50 28.65701 -81.28025 2996 ft 148 kts 216°
2026-04-26 06:50 28.64869 -81.28709 2994 ft 147 kts 216°
2026-04-26 06:50 28.64055 -81.29376 2995 ft 146 kts 215°
2026-04-26 06:50 28.63233 -81.30048 2997 ft 145 kts 216°
2026-04-26 06:51 28.62410 -81.30723 2999 ft 146 kts 216°
2026-04-26 06:51 28.60765 -81.32072 2999 ft 145 kts 216°
2026-04-26 06:51 28.59894 -81.32647 2999 ft 146 kts 200°
2026-04-26 06:52 28.58880 -81.32763 2829 ft 143 kts 184°
2026-04-26 06:52 28.57880 -81.32796 2641 ft 143 kts 183°
2026-04-26 06:52 28.56892 -81.32808 2455 ft 141 kts 182°
2026-04-26 06:52 28.55912 -81.32808 2270 ft 140 kts 181°
2026-04-26 06:53 28.54935 -81.32802 2085 ft 140 kts 181°
2026-04-26 06:53 28.53960 -81.32794 1899 ft 140 kts 181°
2026-04-26 06:53 28.53001 -81.32785 1720 ft 139 kts 182°
2026-04-26 06:53 28.52037 -81.32775 1535 ft 138 kts 181°
2026-04-26 06:54 28.51078 -81.32765 1353 ft 138 kts 181°
2026-04-26 06:54 28.50116 -81.32755 1171 ft 138 kts 181°
2026-04-26 06:54 28.49160 -81.32744 993 ft 138 kts 180°
2026-04-26 06:54 28.48201 -81.32737 799 ft 138 kts 180°
2026-04-26 06:55 28.47237 -81.32731 601 ft 139 kts 180°
2026-04-26 06:55 28.46263 -81.32719 424 ft 140 kts 179°
2026-04-26 06:55 28.45287 -81.32709 255 ft 141 kts 179°
2026-04-26 06:55 28.44322 -81.32692 104 ft 130 kts 179°
2026-04-26 06:56 28.43551 -81.32686 99 ft 87 kts 179°
2026-04-26 06:56 28.43101 -81.32680 100 ft 52 kts 179°
2026-04-26 06:56 28.42756 -81.32669 101 ft 47 kts 173°
2026-04-26 06:56 28.42608 -81.32588 99 ft 11 kts 116°
2026-04-26 06:57 28.42547 -81.32470 101 ft 20 kts 121°
2026-04-26 06:57 28.42459 -81.32301 103 ft 30 kts 121°
2026-04-26 06:57 28.42349 -81.32086 105 ft 31 kts 125°
2026-04-26 06:57 28.42198 -81.31986 100 ft 26 kts 180°
2026-04-26 06:58 28.42009 -81.31984 99 ft 28 kts 179°
2026-04-26 06:58 28.41817 -81.31981 98 ft 21 kts 179°
2026-04-26 06:58 28.41759 -81.31943 100 ft 10 kts 107°
2026-04-26 06:58 28.41757 -81.31831 98 ft 16 kts 93°
2026-04-26 06:59 28.41681 -81.31740 98 ft 17 kts 116°
2026-04-26 06:59 28.41630 -81.31605 95 ft 21 kts 113°
2026-04-26 06:59 28.41544 -81.31546 94 ft 15 kts 183°
2026-04-26 06:59 28.41491 -81.31513 94 ft 7 kts 104°
2026-04-26 07:00 28.41487 -81.31471 94 ft 3 kts 95°
2026-04-26 07:00 28.41486 -81.31460 94 ft 1 kts 95°
2026-04-26 07:00 28.41486 -81.31457 94 ft 0 kts 95°